Regional Weather Roundup
Issued by NWS Charleston, SC

Current Version | Previous Version | Graphics & Text | Print | Product List | Glossary On
Versions: 1 2 3 4 5 6 7 8 9 10 11 12 13 14 15 16 17 18 19 20 21 22 23 24 25 26 27 28 29 30 31 32 33 34 35 36 37 38 39 40 41 42 43 44 45 46 47 48 49 50
000
ASUS42 KCHS 200427
RWRCHS

REGIONAL WEATHER ROUNDUP
NATIONAL WEATHER SERVICE CHARLESTON SC
1100 PM EST SUN FEB 19 2017

NOTE: "FAIR" INDICATES FEW OR NO CLOUDS BELOW 12,000 FEET WITH NO
SIGNIFICANT WEATHER AND/OR OBSTRUCTIONS TO VISIBILITY.

NOT ALL STATIONS ARE QUALITY CONTROLLED. USE DATA WITH CAUTION...
ESPECIALLY DEWPOINT OBSERVATIONS.

SCZ027-030-031-034>040-042>050-200500-
...SOUTHEAST SOUTH CAROLINA...

CITY           SKY/WX    TMP DP  RH WIND       PRES   REMARKS
N CHARLESTON   CLEAR     52  46  80 CALM      30.08S
WATERFRONT PRK   N/A     63  52  67 CALM      30.08R
MOUNT PLEASANT LGT RAIN  54  48  82 CALM      30.08F
JOHNS ISLAND   FAIR      55  50  82 CALM      30.09S
PINOPOLIS        N/A     61  54  77 CALM      30.00R
MONCKS CORNER  FAIR      50  46  87 CALM      30.08F
SUMMERVILLE    FAIR      52  48  87 CALM      30.10S
BEAUFORT MCAS  CLEAR     55  51  86 CALM      30.09S
BEAUFORT ARPT  FAIR      54  50  87 CALM      30.09S
HILTON HEAD IS CLEAR     54  52  94 CALM      30.09F
WALTERBORO     CLEAR     50  46  87 CALM      30.10S
ALLENDALE      FAIR      52  50  93 CALM      30.08S

...SOUTHERN MIDLANDS AND PEE DEE...

CITY           SKY/WX    TMP DP  RH WIND       PRES   REMARKS
GEORGETOWN     FAIR      46  45  93 CALM      30.09F
KINGSTREE      FAIR      46  45  93 CALM      30.09S
ORANGEBURG     CLEAR     52  48  86 CALM      30.09S
BARNWELL       FAIR      50  50 100 CALM      30.09F
AIKEN          FAIR      50  46  87 CALM      30.13R
MANNING        FAIR      48  46  93 MISG      30.09F
COLUMBIA       CLEAR     51  47  86 W5        30.09S
SUMTER         CLEAR     52  46  79 CALM      30.06F
FLORENCE       PTCLDY    50  46  86 NW5       30.09R
MYRTLE BEACH   CLEAR     54  48  80 CALM      30.08F
N MYRTLE BEACH CLEAR     52  49  89 NW3       30.07S

$$

GAZ063-065-086>088-099>101-113>116-118-119-134>141-150-200500-
...SOUTHEAST GEORGIA...

CITY           SKY/WX    TMP DP  RH WIND       PRES   REMARKS
SAVANNAH ARPT  CLEAR     56  49  77 CALM      30.09S
HUNTER AAF     CLEAR     57  53  84 CALM      30.06S
FORT STEWART   CLEAR     54  50  86 CALM      30.06F
STATESBORO     CLEAR     52  52 100 CALM      30.09S
SYLVANIA       CLEAR    N/A N/A N/A CALM      30.10S
CLAXTON        FAIR     N/A N/A N/A CALM      30.10R

...CSRA...CENTRAL AND FAR SOUTHEAST GEORGIA...

CITY           SKY/WX    TMP DP  RH WIND       PRES   REMARKS
THOMSON        CLEAR     50  50 100 CALM      30.16R
AUGUSTA-BUSH   CLEAR     50  47  89 W3        30.09R
AUGUSTA-DANIEL CLEAR     58  47  66 CALM      30.10R
SWAINSBORO     FAIR      50  50 100 CALM      30.11R
VIDALIA        CLEAR     55  54  94 CALM      30.11R
EASTMAN        FAIR      51  51 100 CALM      30.15R
HAZLEHURST     FAIR      55  55 100 CALM      30.10S
ALMA           CLEAR     54  52  93 CALM      30.10R
WAYCROSS       CLEAR     58  57  95 CALM      30.11R
JESUP          FAIR      54  50  87 CALM      30.10R
BAXLEY         FAIR      54  54 100 CALM      30.11R
BRUNSWICK      FOG       55  55 100 CALM      30.10S VSB 1/4
SAINT SIMONS   CLEAR     58  57  97 CALM      30.09S

$$

SCZ027-028-034-036>038-045-046-048>050-GAZ119-141-200500-
...LAKE AND SUPPLEMENTAL COASTAL OBSERVATIONS...

STATION/POSITION TIME  TEMP    WIND        PRES    WAVE   SWELL
                       AIR SEA DIR/SP/G            HT/PER HT/PER/DIR
                 (UTC) (F)     (DEG/KT/KT) (MB)    (FT/S) (FT/S/D)
WINYAH BAY       0330   58     310/  4     1018.0S
LAKE MURRAY      0350   54        CALM     1018.6R
ACE BASIN NERRS  0330   54        CALM     1018.0S
FORT PULASKI     0400   59 60     CALM     1018.8
SAPELO ISLAND    0400   57        CALM     1019.0

$$

ANZ835-935-AMZ111-154-330-350-352-354-370-450-454-472-200500-
...C-MAN AND BUOY OBSERVATIONS...

STATION/POSITION TIME  TEMP    WIND        PRES    WAVE   SWELL
                       AIR SEA DIR/SP/G            HT/PER HT/PER/DIR
                 (UTC) (F)     (DEG/KT/KT) (MB)    (FT/S) (FT/S/D)
BUOY 41004       0350   66 69  330/  8/ 10 1018.3R   1/ 6   2/120/ 6
BUOY 41008       0350   62 62  220/  4/  4 1018.7F   1
FOLLY BEACH CMAN 0400   61     310/  3/  4 1019.1F
CAPERS NEARSHORE 0308   61 60  340/  4/  6 1018.6R
FRIPP NEARSHORE  0408   60 59  240/  2/  2 1018.4F


STATION/POSITION TIME  TEMP    WIND        PRES    WAVE   SWELL
                       AIR SEA DIR/SP/G            HT/PER HT/PER/DIR
                 (UTC) (F)     (DEG/KT/KT) (MB)    (FT/S) (FT/S/D)
5E ST. MARYS GA  0400      64                N/A     1
FRYING PAN BUOY  0410   64 64  300/  8/ 10 1018.0
BUOY 41025       0350   63 67  360/  8/ 10 1016.9R   2/ 8   2/160/ 8
CAPE LOOKOUT NC  0400   58     280/  5/  5 1017.0R
BUOY 41002       0350   70 71  340/ 16/ 21 1015.4R   5/ 7   2/290/14
BUOY 41010       NOT AVBL
ST AUGUSTINE FL  0400   63 67  220/  4/  5 1020.2R


$$




USA.gov is the U.S. government's official web portal to all federal, state and local government web resources and services.